Time,TemperatureF,DewpointF,PressureIn,WindDirection,WindDirectionDegrees,WindSpeedMPH,WindSpeedGustMPH,Humidity,HourlyPrecipIn,Conditions,Clouds,dailyrainin,SoftwareType,DateUTC
2013-05-16 00:00:00,71.6,57.9,29.81,WSW,248,3.0,7.0,62,0.00,,,0.00,Wunderground v.1.15,2013-05-16 04:00:00,
2013-05-16 00:01:00,71.6,57.9,29.81,SW,228,5.0,7.0,62,0.00,,,0.00,Wunderground v.1.15,2013-05-16 04:01:00,
2013-05-16 00:02:00,71.7,58.0,29.81,SW,230,3.0,7.0,62,0.00,,,0.00,Wunderground v.1.15,2013-05-16 04:02:00,
2013-05-16 00:04:00,71.6,57.9,29.81,SW,236,1.0,7.0,62,0.00,,,0.00,Wunderground v.1.15,2013-05-16 04:04:00,
2013-05-16 00:07:00,71.5,57.8,29.81,WSW,248,4.0,7.0,62,0.00,,,0.00,Wunderground v.1.15,2013-05-16 04:07:00,
2013-05-16 00:09:00,71.5,57.8,29.81,West,265,0.0,7.0,62,0.00,,,0.00,Wunderground v.1.15,2013-05-16 04:09:00,
2013-05-16 00:10:00,71.5,57.8,29.81,WSW,246,4.0,4.0,62,0.00,,,0.00,Wunderground v.1.15,2013-05-16 04:10:00,
2013-05-16 00:11:00,71.5,57.8,29.81,SSW,208,3.0,4.0,62,0.00,,,0.00,Wunderground v.1.15,2013-05-16 04:11:00,
2013-05-16 00:13:00,71.4,57.7,29.81,SW,227,3.0,4.0,62,0.00,,,0.00,Wunderground v.1.15,2013-05-16 04:13:00,
2013-05-16 00:15:00,71.3,57.6,29.81,SW,229,3.0,4.0,62,0.00,,,0.00,Wunderground v.1.15,2013-05-16 04:15:00,
2013-05-16 00:18:00,71.2,58.0,29.81,WSW,248,2.0,5.0,63,0.00,,,0.00,Wunderground v.1.15,2013-05-16 04:18:00,
2013-05-16 00:19:00,71.2,58.0,29.82,NW,306,2.0,5.0,63,0.00,,,0.00,Wunderground v.1.15,2013-05-16 04:19:00,
2013-05-16 00:20:00,71.1,57.9,29.82,SSW,211,6.0,6.0,63,0.00,,,0.00,Wunderground v.1.15,2013-05-16 04:20:00,
2013-05-16 00:21:00,71.1,57.9,29.81,WNW,287,2.0,6.0,63,0.00,,,0.00,Wunderground v.1.15,2013-05-16 04:21:00,
2013-05-16 00:24:00,71.1,57.9,29.82,WSW,252,2.0,6.0,63,0.00,,,0.00,Wunderground v.1.15,2013-05-16 04:24:00,
2013-05-16 00:28:00,71.0,57.8,29.82,WSW,241,2.0,6.0,63,0.00,,,0.00,Wunderground v.1.15,2013-05-16 04:28:00,
2013-05-16 00:29:00,71.1,57.9,29.82,West,268,2.0,6.0,63,0.00,,,0.00,Wunderground v.1.15,2013-05-16 04:29:00,
2013-05-16 00:33:00,71.1,57.9,29.82,West,275,2.0,6.0,63,0.00,,,0.00,Wunderground v.1.15,2013-05-16 04:33:00,
2013-05-16 00:35:00,71.1,57.9,29.83,WNW,297,1.0,6.0,63,0.00,,,0.00,Wunderground v.1.15,2013-05-16 04:35:00,
2013-05-16 00:36:00,71.1,57.9,29.83,West,273,2.0,6.0,63,0.00,,,0.00,Wunderground v.1.15,2013-05-16 04:36:00,
2013-05-16 00:38:00,71.1,57.9,29.83,WNW,298,5.0,6.0,63,0.00,,,0.00,Wunderground v.1.15,2013-05-16 04:38:00,
2013-05-16 00:40:00,71.0,57.8,29.83,SW,235,4.0,4.0,63,0.00,,,0.00,Wunderground v.1.15,2013-05-16 04:40:00,
2013-05-16 00:42:00,71.0,57.8,29.83,WSW,250,0.0,4.0,63,0.00,,,0.00,Wunderground v.1.15,2013-05-16 04:42:00,
2013-05-16 00:43:00,70.9,58.1,29.83,NW,304,3.0,4.0,64,0.00,,,0.00,Wunderground v.1.15,2013-05-16 04:43:00,
2013-05-16 00:47:00,70.8,58.0,29.83,West,260,2.0,4.0,64,0.00,,,0.00,Wunderground v.1.15,2013-05-16 04:47:00,
2013-05-16 00:48:00,70.8,58.0,29.83,WSW,248,2.0,4.0,64,0.00,,,0.00,Wunderground v.1.15,2013-05-16 04:48:00,
2013-05-16 00:50:00,70.7,57.9,29.83,West,275,3.0,3.0,64,0.00,,,0.00,Wunderground v.1.15,2013-05-16 04:50:00,
2013-05-16 00:54:00,70.5,57.7,29.83,WSW,254,2.0,4.0,64,0.00,,,0.00,Wunderground v.1.15,2013-05-16 04:54:00,
2013-05-16 00:55:00,70.4,57.6,29.83,WSW,254,2.0,4.0,64,0.00,,,0.00,Wunderground v.1.15,2013-05-16 04:55:00,
2013-05-16 00:57:00,70.3,57.5,29.83,WSW,254,0.0,4.0,64,0.00,,,0.00,Wunderground v.1.15,2013-05-16 04:57:00,
2013-05-16 00:58:00,70.2,57.4,29.83,WSW,254,1.0,4.0,64,0.00,,,0.00,Wunderground v.1.15,2013-05-16 04:58:00,
2013-05-16 01:01:00,70.2,57.4,29.83,West,261,0.0,2.0,64,0.00,,,0.00,Wunderground v.1.15,2013-05-16 05:01:00,
2013-05-16 01:02:00,70.2,57.4,29.83,West,261,1.0,2.0,64,0.00,,,0.00,Wunderground v.1.15,2013-05-16 05:02:00,
2013-05-16 01:05:00,70.1,57.4,29.83,West,260,0.0,2.0,64,0.00,,,0.00,Wunderground v.1.15,2013-05-16 05:05:00,
2013-05-16 01:06:00,70.0,57.7,29.83,West,260,0.0,2.0,65,0.00,,,0.00,Wunderground v.1.15,2013-05-16 05:06:00,
2013-05-16 01:07:00,70.0,57.7,29.83,West,260,1.0,2.0,65,0.00,,,0.00,Wunderground v.1.15,2013-05-16 05:07:00,
2013-05-16 01:10:00,69.9,57.6,29.83,WSW,258,0.0,3.0,65,0.00,,,0.00,Wunderground v.1.15,2013-05-16 05:10:00,
2013-05-16 01:12:00,69.8,57.5,29.83,WSW,258,2.0,3.0,65,0.00,,,0.00,Wunderground v.1.15,2013-05-16 05:12:00,
2013-05-16 01:13:00,69.7,57.4,29.83,WSW,258,1.0,3.0,65,0.00,,,0.00,Wunderground v.1.15,2013-05-16 05:13:00,
2013-05-16 01:15:00,69.7,57.4,29.83,SW,229,1.0,3.0,65,0.00,,,0.00,Wunderground v.1.15,2013-05-16 05:15:00,
2013-05-16 01:18:00,69.6,57.3,29.83,WSW,242,1.0,3.0,65,0.00,,,0.00,Wunderground v.1.15,2013-05-16 05:18:00,
2013-05-16 01:19:00,69.5,57.2,29.82,WSW,242,0.0,1.0,65,0.00,,,0.00,Wunderground v.1.15,2013-05-16 05:19:00,
2013-05-16 01:24:00,69.4,57.1,29.82,WSW,238,3.0,7.0,65,0.00,,,0.00,Wunderground v.1.15,2013-05-16 05:24:00,
2013-05-16 01:25:00,69.4,57.5,29.82,WSW,238,5.0,7.0,66,0.00,,,0.00,Wunderground v.1.15,2013-05-16 05:25:00,
2013-05-16 01:29:00,69.2,57.4,29.81,South,187,3.0,7.0,66,0.00,,,0.00,Wunderground v.1.15,2013-05-16 05:29:00,
2013-05-16 01:30:00,69.2,57.4,29.82,SW,214,1.0,2.0,66,0.00,,,0.00,Wunderground v.1.15,2013-05-16 05:30:00,
2013-05-16 01:31:00,69.2,56.9,29.82,SW,221,0.0,2.0,65,0.00,,,0.00,Wunderground v.1.15,2013-05-16 05:31:00,
2013-05-16 01:32:00,69.2,56.9,29.82,SW,221,0.0,2.0,65,0.00,,,0.00,Wunderground v.1.15,2013-05-16 05:32:00,
2013-05-16 01:34:00,69.2,57.4,29.82,SW,221,1.0,3.0,66,0.00,,,0.00,Wunderground v.1.15,2013-05-16 05:34:00,
2013-05-16 01:39:00,69.1,57.3,29.82,SW,230,2.0,3.0,66,0.00,,,0.00,Wunderground v.1.15,2013-05-16 05:39:00,
2013-05-16 01:40:00,69.1,57.3,29.82,SW,231,0.0,2.0,66,0.00,,,0.00,Wunderground v.1.15,2013-05-16 05:40:00,
2013-05-16 01:41:00,69.1,57.3,29.82,SW,231,0.0,2.0,66,0.00,,,0.00,Wunderground v.1.15,2013-05-16 05:41:00,
2013-05-16 01:42:00,69.1,57.3,29.82,WNW,290,2.0,2.0,66,0.00,,,0.00,Wunderground v.1.15,2013-05-16 05:42:00,
2013-05-16 01:45:00,69.1,57.3,29.82,WNW,284,3.0,3.0,66,0.00,,,0.00,Wunderground v.1.15,2013-05-16 05:45:00,
2013-05-16 01:47:00,69.0,57.2,29.82,WSW,247,2.0,3.0,66,0.00,,,0.00,Wunderground v.1.15,2013-05-16 05:47:00,
2013-05-16 01:48:00,69.0,57.2,29.82,WSW,245,2.0,3.0,66,0.00,,,0.00,Wunderground v.1.15,2013-05-16 05:48:00,
2013-05-16 01:50:00,69.0,57.2,29.82,SW,233,6.0,6.0,66,0.00,,,0.00,Wunderground v.1.15,2013-05-16 05:50:00,
2013-05-16 01:51:00,68.9,57.1,29.82,WSW,248,3.0,6.0,66,0.00,,,0.00,Wunderground v.1.15,2013-05-16 05:51:00,
2013-05-16 01:52:00,68.9,57.1,29.82,WSW,251,2.0,6.0,66,0.00,,,0.00,Wunderground v.1.15,2013-05-16 05:52:00,
2013-05-16 01:53:00,68.9,57.1,29.82,SW,230,2.0,6.0,66,0.00,,,0.00,Wunderground v.1.15,2013-05-16 05:53:00,
2013-05-16 01:56:00,68.9,57.1,29.82,SW,230,0.0,6.0,66,0.00,,,0.00,Wunderground v.1.15,2013-05-16 05:56:00,
2013-05-16 01:58:00,68.8,57.0,29.82,WNW,297,2.0,6.0,66,0.00,,,0.00,Wunderground v.1.15,2013-05-16 05:58:00,
2013-05-16 01:59:00,68.8,57.0,29.82,WSW,256,1.0,2.0,66,0.00,,,0.00,Wunderground v.1.15,2013-05-16 05:59:00,
2013-05-16 02:00:00,68.8,57.0,29.82,SW,215,5.0,5.0,66,0.00,,,0.00,Wunderground v.1.15,2013-05-16 06:00:00,
2013-05-16 02:01:00,68.8,57.0,29.82,SW,218,4.0,5.0,66,0.00,,,0.00,Wunderground v.1.15,2013-05-16 06:01:00,
2013-05-16 02:02:00,68.7,56.9,29.82,SW,232,1.0,5.0,66,0.00,,,0.00,Wunderground v.1.15,2013-05-16 06:02:00,
2013-05-16 02:04:00,68.7,56.9,29.82,WSW,242,0.0,5.0,66,0.00,,,0.00,Wunderground v.1.15,2013-05-16 06:04:00,
2013-05-16 02:05:00,68.6,56.8,29.82,WSW,242,1.0,5.0,66,0.00,,,0.00,Wunderground v.1.15,2013-05-16 06:05:00,
2013-05-16 02:06:00,68.6,56.8,29.82,WSW,242,0.0,5.0,66,0.00,,,0.00,Wunderground v.1.15,2013-05-16 06:06:00,
2013-05-16 02:07:00,68.5,56.7,29.82,WNW,282,0.0,5.0,66,0.00,,,0.00,Wunderground v.1.15,2013-05-16 06:07:00,
2013-05-16 02:10:00,68.4,57.0,29.82,WNW,300,3.0,3.0,67,0.00,,,0.00,Wunderground v.1.15,2013-05-16 06:10:00,
2013-05-16 02:11:00,68.4,57.0,29.82,West,272,2.0,3.0,67,0.00,,,0.00,Wunderground v.1.15,2013-05-16 06:11:00,
2013-05-16 02:12:00,68.3,56.9,29.82,SW,226,3.0,5.0,67,0.00,,,0.00,Wunderground v.1.15,2013-05-16 06:12:00,
2013-05-16 02:15:00,68.2,56.8,29.82,WSW,248,2.0,6.0,67,0.00,,,0.00,Wunderground v.1.15,2013-05-16 06:15:00,
2013-05-16 02:16:00,68.2,56.8,29.82,WSW,241,2.0,6.0,67,0.00,,,0.00,Wunderground v.1.15,2013-05-16 06:16:00,
2013-05-16 02:17:00,68.2,56.8,29.82,West,266,1.0,6.0,67,0.00,,,0.00,Wunderground v.1.15,2013-05-16 06:17:00,
2013-05-16 02:20:00,68.0,57.0,29.82,WSW,249,2.0,6.0,68,0.00,,,0.00,Wunderground v.1.15,2013-05-16 06:20:00,
2013-05-16 02:21:00,68.0,57.0,29.82,WSW,249,0.0,6.0,68,0.00,,,0.00,Wunderground v.1.15,2013-05-16 06:21:00,
2013-05-16 02:22:00,67.9,56.9,29.82,WSW,244,3.0,6.0,68,0.00,,,0.00,Wunderground v.1.15,2013-05-16 06:22:00,
2013-05-16 02:25:00,67.9,56.9,29.82,SW,236,4.0,7.0,68,0.00,,,0.00,Wunderground v.1.15,2013-05-16 06:25:00,
2013-05-16 02:26:00,67.9,56.9,29.82,West,270,2.0,7.0,68,0.00,,,0.00,Wunderground v.1.15,2013-05-16 06:26:00,
2013-05-16 02:27:00,67.9,56.9,29.82,WSW,242,2.0,7.0,68,0.00,,,0.00,Wunderground v.1.15,2013-05-16 06:27:00,
2013-05-16 02:30:00,67.9,56.9,29.82,WSW,238,1.0,7.0,68,0.00,,,0.00,Wunderground v.1.15,2013-05-16 06:30:00,
2013-05-16 02:31:00,67.9,56.9,29.82,West,273,2.0,7.0,68,0.00,,,0.00,Wunderground v.1.15,2013-05-16 06:31:00,
2013-05-16 02:32:00,67.9,56.9,29.82,NW,306,3.0,7.0,68,0.00,,,0.00,Wunderground v.1.15,2013-05-16 06:32:00,
2013-05-16 02:35:00,67.9,56.9,29.82,WNW,296,4.0,7.0,68,0.00,,,0.00,Wunderground v.1.15,2013-05-16 06:35:00,
2013-05-16 02:37:00,67.9,56.9,29.82,WNW,291,4.0,7.0,68,0.00,,,0.00,Wunderground v.1.15,2013-05-16 06:37:00,
2013-05-16 02:40:00,67.9,56.9,29.82,WSW,254,1.0,4.0,68,0.00,,,0.00,Wunderground v.1.15,2013-05-16 06:40:00,
2013-05-16 02:42:00,67.9,56.9,29.82,West,275,1.0,4.0,68,0.00,,,0.00,Wunderground v.1.15,2013-05-16 06:42:00,
2013-05-16 02:43:00,67.8,56.9,29.82,WSW,255,3.0,5.0,68,0.00,,,0.00,Wunderground v.1.15,2013-05-16 06:43:00,
2013-05-16 02:46:00,67.8,56.9,29.82,WSW,245,1.0,5.0,68,0.00,,,0.00,Wunderground v.1.15,2013-05-16 06:46:00,
2013-05-16 02:47:00,67.8,56.9,29.82,WSW,240,4.0,5.0,68,0.00,,,0.00,Wunderground v.1.15,2013-05-16 06:47:00,
2013-05-16 02:48:00,67.8,56.9,29.82,SW,235,3.0,5.0,68,0.00,,,0.00,Wunderground v.1.15,2013-05-16 06:48:00,
2013-05-16 02:51:00,67.7,56.8,29.82,West,265,2.0,6.0,68,0.00,,,0.00,Wunderground v.1.15,2013-05-16 06:51:00,
2013-05-16 02:52:00,67.7,56.8,29.82,WSW,238,2.0,6.0,68,0.00,,,0.00,Wunderground v.1.15,2013-05-16 06:52:00,
2013-05-16 02:53:00,67.7,56.8,29.82,WSW,244,3.0,6.0,68,0.00,,,0.00,Wunderground v.1.15,2013-05-16 06:53:00,
2013-05-16 02:56:00,67.6,57.1,29.82,SW,227,5.0,6.0,69,0.00,,,0.00,Wunderground v.1.15,2013-05-16 06:56:00,
2013-05-16 02:57:00,67.6,57.1,29.82,WSW,237,2.0,6.0,69,0.00,,,0.00,Wunderground v.1.15,2013-05-16 06:57:00,
2013-05-16 02:58:00,67.6,57.1,29.82,WSW,246,2.0,6.0,69,0.00,,,0.00,Wunderground v.1.15,2013-05-16 06:58:00,
2013-05-16 03:01:00,67.6,57.1,29.82,WSW,242,3.0,4.0,69,0.00,,,0.00,Wunderground v.1.15,2013-05-16 07:01:00,
2013-05-16 03:02:00,67.6,57.1,29.82,WNW,292,2.0,4.0,69,0.00,,,0.00,Wunderground v.1.15,2013-05-16 07:02:00,
2013-05-16 03:03:00,67.6,57.1,29.82,WNW,296,4.0,6.0,69,0.00,,,0.00,Wunderground v.1.15,2013-05-16 07:03:00,
2013-05-16 03:06:00,67.6,56.7,29.82,WSW,242,1.0,6.0,68,0.00,,,0.00,Wunderground v.1.15,2013-05-16 07:06:00,
2013-05-16 03:07:00,67.6,57.1,29.82,West,260,2.0,6.0,69,0.00,,,0.00,Wunderground v.1.15,2013-05-16 07:07:00,
2013-05-16 03:08:00,67.6,56.7,29.82,WNW,301,4.0,6.0,68,0.00,,,0.00,Wunderground v.1.15,2013-05-16 07:08:00,
2013-05-16 03:09:00,67.6,56.7,29.82,WNW,295,3.0,6.0,68,0.00,,,0.00,Wunderground v.1.15,2013-05-16 07:09:00,
2013-05-16 03:11:00,67.6,57.1,29.82,West,279,2.0,4.0,69,0.00,,,0.00,Wunderground v.1.15,2013-05-16 07:11:00,
2013-05-16 03:12:00,67.6,57.1,29.82,WNW,282,4.0,5.0,69,0.00,,,0.00,Wunderground v.1.15,2013-05-16 07:12:00,
2013-05-16 03:13:00,67.6,56.7,29.82,WNW,297,5.0,6.0,68,0.00,,,0.00,Wunderground v.1.15,2013-05-16 07:13:00,
2013-05-16 03:14:00,67.6,56.7,29.82,WNW,296,4.0,7.0,68,0.00,,,0.00,Wunderground v.1.15,2013-05-16 07:14:00,
2013-05-16 03:16:00,67.6,56.7,29.82,WNW,302,5.0,8.0,68,0.00,,,0.00,Wunderground v.1.15,2013-05-16 07:16:00,
2013-05-16 03:17:00,67.7,56.8,29.82,WNW,292,2.0,8.0,68,0.00,,,0.00,Wunderground v.1.15,2013-05-16 07:17:00,
2013-05-16 03:18:00,67.6,56.7,29.82,WNW,292,0.0,8.0,68,0.00,,,0.00,Wunderground v.1.15,2013-05-16 07:18:00,
2013-05-16 03:19:00,67.7,56.8,29.82,WSW,238,3.0,8.0,68,0.00,,,0.00,Wunderground v.1.15,2013-05-16 07:19:00,
2013-05-16 03:22:00,67.6,56.7,29.82,WSW,248,3.0,5.0,68,0.00,,,0.00,Wunderground v.1.15,2013-05-16 07:22:00,
2013-05-16 03:23:00,67.6,56.7,29.82,WNW,302,0.0,8.0,68,0.00,,,0.00,Wunderground v.1.15,2013-05-16 07:23:00,
2013-05-16 03:24:00,67.6,56.7,29.82,NW,308,5.0,8.0,68,0.00,,,0.00,Wunderground v.1.15,2013-05-16 07:24:00,
2013-05-16 03:37:00,67.6,57.1,29.82,WNW,303,5.0,5.0,69,0.00,,,0.00,Wunderground v.1.15,2013-05-16 07:37:00,
2013-05-16 03:46:00,67.3,56.8,29.81,WNW,300,2.0,3.0,69,0.00,,,0.00,Wunderground v.1.15,2013-05-16 07:46:00,
2013-05-16 03:51:00,67.2,56.7,29.81,West,267,2.0,4.0,69,0.00,,,0.00,Wunderground v.1.15,2013-05-16 07:51:00,
2013-05-16 03:52:00,67.1,56.6,29.81,WSW,246,4.0,4.0,69,0.00,,,0.00,Wunderground v.1.15,2013-05-16 07:52:00,
2013-05-16 03:53:00,67.0,56.5,29.81,SW,234,2.0,5.0,69,0.00,,,0.00,Wunderground v.1.15,2013-05-16 07:53:00,
2013-05-16 03:56:00,66.9,56.8,29.81,WSW,238,1.0,2.0,70,0.00,,,0.00,Wunderground v.1.15,2013-05-16 07:56:00,
2013-05-16 03:57:00,66.8,56.7,29.81,SW,235,2.0,4.0,70,0.00,,,0.00,Wunderground v.1.15,2013-05-16 07:57:00,
2013-05-16 03:58:00,66.8,56.7,29.81,West,259,2.0,5.0,70,0.00,,,0.00,Wunderground v.1.15,2013-05-16 07:58:00,
2013-05-16 04:02:00,66.6,56.5,29.80,WSW,249,2.0,6.0,70,0.00,,,0.00,Wunderground v.1.15,2013-05-16 08:02:00,
2013-05-16 04:03:00,66.5,56.4,29.80,West,269,0.0,6.0,70,0.00,,,0.00,Wunderground v.1.15,2013-05-16 08:03:00,
2013-05-16 04:07:00,66.4,56.3,29.80,WSW,243,3.0,7.0,70,0.00,,,0.00,Wunderground v.1.15,2013-05-16 08:07:00,
2013-05-16 04:08:00,66.4,56.3,29.80,WSW,243,0.0,7.0,70,0.00,,,0.00,Wunderground v.1.15,2013-05-16 08:08:00,
2013-05-16 04:12:00,66.4,56.3,29.80,WNW,284,2.0,7.0,70,0.00,,,0.00,Wunderground v.1.15,2013-05-16 08:12:00,
2013-05-16 04:13:00,66.4,56.3,29.80,WSW,252,4.0,7.0,70,0.00,,,0.00,Wunderground v.1.15,2013-05-16 08:13:00,
2013-05-16 04:17:00,66.3,56.2,29.81,WNW,295,2.0,7.0,70,0.00,,,0.00,Wunderground v.1.15,2013-05-16 08:17:00,
2013-05-16 04:18:00,66.3,56.2,29.81,SW,235,3.0,7.0,70,0.00,,,0.00,Wunderground v.1.15,2013-05-16 08:18:00,
2013-05-16 04:19:00,66.3,56.6,29.80,SW,228,1.0,7.0,71,0.00,,,0.00,Wunderground v.1.15,2013-05-16 08:19:00,
2013-05-16 04:22:00,66.2,56.5,29.81,WSW,242,3.0,4.0,71,0.00,,,0.00,Wunderground v.1.15,2013-05-16 08:22:00,
2013-05-16 04:23:00,66.1,56.4,29.81,WSW,242,0.0,4.0,71,0.00,,,0.00,Wunderground v.1.15,2013-05-16 08:23:00,
2013-05-16 04:24:00,66.1,56.4,29.80,WSW,258,2.0,4.0,71,0.00,,,0.00,Wunderground v.1.15,2013-05-16 08:24:00,
2013-05-16 04:28:00,66.0,56.3,29.80,WSW,250,1.0,5.0,71,0.00,,,0.00,Wunderground v.1.15,2013-05-16 08:28:00,
2013-05-16 04:29:00,65.9,56.2,29.80,WSW,242,1.0,5.0,71,0.00,,,0.00,Wunderground v.1.15,2013-05-16 08:29:00,
2013-05-16 04:33:00,65.8,56.1,29.81,West,276,1.0,5.0,71,0.00,,,0.00,Wunderground v.1.15,2013-05-16 08:33:00,
2013-05-16 04:34:00,65.8,56.1,29.81,WSW,246,2.0,5.0,71,0.00,,,0.00,Wunderground v.1.15,2013-05-16 08:34:00,
2013-05-16 04:38:00,65.7,56.4,29.81,WNW,302,1.0,5.0,72,0.00,,,0.00,Wunderground v.1.15,2013-05-16 08:38:00,
2013-05-16 04:39:00,65.7,56.4,29.81,WNW,302,0.0,5.0,72,0.00,,,0.00,Wunderground v.1.15,2013-05-16 08:39:00,
2013-05-16 04:44:00,65.7,56.4,29.81,WNW,302,3.0,3.0,72,0.00,,,0.00,Wunderground v.1.15,2013-05-16 08:44:00,
2013-05-16 04:45:00,65.7,56.4,29.81,WNW,302,1.0,3.0,72,0.00,,,0.00,Wunderground v.1.15,2013-05-16 08:45:00,
2013-05-16 04:49:00,65.8,56.5,29.81,WNW,283,1.0,4.0,72,0.00,,,0.00,Wunderground v.1.15,2013-05-16 08:49:00,
2013-05-16 04:50:00,65.8,56.5,29.81,WNW,291,3.0,4.0,72,0.00,,,0.00,Wunderground v.1.15,2013-05-16 08:50:00,
2013-05-16 04:54:00,65.8,56.5,29.81,WNW,300,2.0,4.0,72,0.00,,,0.00,Wunderground v.1.15,2013-05-16 08:54:00,
2013-05-16 04:55:00,65.8,56.5,29.81,WNW,300,0.0,4.0,72,0.00,,,0.00,Wunderground v.1.15,2013-05-16 08:55:00,
2013-05-16 04:56:00,65.8,56.5,29.81,WNW,300,1.0,4.0,72,0.00,,,0.00,Wunderground v.1.15,2013-05-16 08:56:00,
2013-05-16 04:59:00,65.8,56.5,29.81,WSW,252,0.0,7.0,72,0.00,,,0.00,Wunderground v.1.15,2013-05-16 08:59:00,
2013-05-16 05:00:00,65.8,56.5,29.81,WNW,294,2.0,2.0,72,0.00,,,0.00,Wunderground v.1.15,2013-05-16 09:00:00,
2013-05-16 05:01:00,65.8,56.5,29.81,NW,304,1.0,7.0,72,0.00,,,0.00,Wunderground v.1.15,2013-05-16 09:01:00,
2013-05-16 05:04:00,65.8,56.5,29.81,WNW,298,3.0,7.0,72,0.00,,,0.00,Wunderground v.1.15,2013-05-16 09:04:00,
2013-05-16 05:05:00,65.8,56.5,29.81,WNW,298,5.0,7.0,72,0.00,,,0.00,Wunderground v.1.15,2013-05-16 09:05:00,
2013-05-16 05:06:00,65.8,56.5,29.81,WNW,300,3.0,7.0,72,0.00,,,0.00,Wunderground v.1.15,2013-05-16 09:06:00,
2013-05-16 05:09:00,65.8,56.5,29.81,WNW,302,3.0,7.0,72,0.00,,,0.00,Wunderground v.1.15,2013-05-16 09:09:00,
2013-05-16 05:10:00,65.8,56.5,29.81,WSW,252,3.0,3.0,72,0.00,,,0.00,Wunderground v.1.15,2013-05-16 09:10:00,
2013-05-16 05:11:00,65.8,56.5,29.81,WSW,249,4.0,7.0,72,0.00,,,0.00,Wunderground v.1.15,2013-05-16 09:11:00,
2013-05-16 05:14:00,65.9,56.2,29.81,WSW,248,4.0,7.0,71,0.00,,,0.00,Wunderground v.1.15,2013-05-16 09:14:00,
2013-05-16 05:15:00,65.8,56.1,29.81,West,271,3.0,7.0,71,0.00,,,0.00,Wunderground v.1.15,2013-05-16 09:15:00,
2013-05-16 05:16:00,65.9,56.2,29.81,WSW,253,1.0,7.0,71,0.00,,,0.00,Wunderground v.1.15,2013-05-16 09:16:00,
2013-05-16 05:19:00,65.9,56.2,29.81,WNW,291,3.0,7.0,71,0.00,,,0.00,Wunderground v.1.15,2013-05-16 09:19:00,
2013-05-16 05:20:00,65.9,56.2,29.81,WSW,254,0.0,3.0,71,0.00,,,0.00,Wunderground v.1.15,2013-05-16 09:20:00,
2013-05-16 05:21:00,65.9,56.2,29.81,WNW,299,3.0,3.0,71,0.00,,,0.00,Wunderground v.1.15,2013-05-16 09:21:00,
2013-05-16 05:24:00,66.0,56.3,29.81,NW,307,0.0,8.0,71,0.00,,,0.00,Wunderground v.1.15,2013-05-16 09:24:00,
2013-05-16 05:25:00,66.0,56.3,29.81,NW,307,0.0,8.0,71,0.00,,,0.00,Wunderground v.1.15,2013-05-16 09:25:00,
2013-05-16 05:26:00,66.0,56.3,29.81,SW,225,3.0,8.0,71,0.00,,,0.00,Wunderground v.1.15,2013-05-16 09:26:00,
2013-05-16 05:29:00,66.0,56.3,29.81,WSW,238,2.0,8.0,71,0.00,,,0.00,Wunderground v.1.15,2013-05-16 09:29:00,
2013-05-16 05:30:00,66.0,55.9,29.81,WSW,239,4.0,4.0,70,0.00,,,0.00,Wunderground v.1.15,2013-05-16 09:30:00,
2013-05-16 05:31:00,66.0,55.9,29.81,SW,227,4.0,5.0,70,0.00,,,0.00,Wunderground v.1.15,2013-05-16 09:31:00,
2013-05-16 05:32:00,65.9,55.8,29.81,SW,235,0.0,5.0,70,0.00,,,0.00,Wunderground v.1.15,2013-05-16 09:32:00,
2013-05-16 05:34:00,65.9,55.8,29.81,West,279,2.0,5.0,70,0.00,,,0.00,Wunderground v.1.15,2013-05-16 09:34:00,
2013-05-16 05:35:00,65.9,55.8,29.81,West,280,2.0,5.0,70,0.00,,,0.00,Wunderground v.1.15,2013-05-16 09:35:00,
2013-05-16 05:36:00,65.9,55.8,29.81,WNW,296,3.0,5.0,70,0.00,,,0.00,Wunderground v.1.15,2013-05-16 09:36:00,
2013-05-16 05:37:00,65.9,55.8,29.81,SW,221,0.0,5.0,70,0.00,,,0.00,Wunderground v.1.15,2013-05-16 09:37:00,
2013-05-16 05:40:00,65.9,55.8,29.81,WSW,238,2.0,5.0,70,0.00,,,0.00,Wunderground v.1.15,2013-05-16 09:40:00,
2013-05-16 05:41:00,65.9,55.8,29.82,WSW,241,0.0,5.0,70,0.00,,,0.00,Wunderground v.1.15,2013-05-16 09:41:00,
2013-05-16 05:42:00,65.9,55.8,29.82,SW,235,2.0,5.0,70,0.00,,,0.00,Wunderground v.1.15,2013-05-16 09:42:00,
2013-05-16 05:45:00,65.9,55.8,29.82,WSW,243,2.0,7.0,70,0.00,,,0.00,Wunderground v.1.15,2013-05-16 09:45:00,
2013-05-16 05:46:00,65.9,55.8,29.82,WSW,242,2.0,7.0,70,0.00,,,0.00,Wunderground v.1.15,2013-05-16 09:46:00,
2013-05-16 05:47:00,65.9,55.8,29.82,WSW,242,4.0,7.0,70,0.00,,,0.00,Wunderground v.1.15,2013-05-16 09:47:00,
2013-05-16 05:50:00,65.8,55.7,29.82,SW,233,3.0,3.0,70,0.00,,,0.00,Wunderground v.1.15,2013-05-16 09:50:00,
2013-05-16 05:51:00,65.8,55.7,29.82,SW,235,3.0,3.0,70,0.00,,,0.00,Wunderground v.1.15,2013-05-16 09:51:00,
2013-05-16 05:53:00,65.7,55.6,29.82,SW,235,1.0,3.0,70,0.00,,,0.00,Wunderground v.1.15,2013-05-16 09:53:00,
2013-05-16 05:55:00,65.6,55.5,29.82,WNW,297,0.0,4.0,70,0.00,,,0.00,Wunderground v.1.15,2013-05-16 09:55:00,
2013-05-16 05:56:00,65.6,55.5,29.82,West,278,1.0,4.0,70,0.00,,,0.00,Wunderground v.1.15,2013-05-16 09:56:00,
2013-05-16 05:58:00,65.5,55.5,29.82,WSW,254,0.0,4.0,70,0.00,,,0.00,Wunderground v.1.15,2013-05-16 09:58:00,
2013-05-16 06:00:00,65.4,55.7,29.82,WSW,254,0.0,1.0,71,0.00,,,0.00,Wunderground v.1.15,2013-05-16 10:00:00,
2013-05-16 06:01:00,65.3,55.7,29.82,WSW,254,1.0,2.0,71,0.00,,,0.00,Wunderground v.1.15,2013-05-16 10:01:00,
2013-05-16 06:02:00,65.3,55.7,29.82,West,260,0.0,2.0,71,0.00,,,0.00,Wunderground v.1.15,2013-05-16 10:02:00,
2013-05-16 06:03:00,65.2,55.2,29.82,West,260,1.0,2.0,70,0.00,,,0.00,Wunderground v.1.15,2013-05-16 10:03:00,
2013-05-16 06:06:00,65.1,55.5,29.82,West,260,0.0,2.0,71,0.00,,,0.00,Wunderground v.1.15,2013-05-16 10:06:00,
2013-05-16 06:07:00,65.0,55.4,29.82,West,260,0.0,2.0,71,0.00,,,0.00,Wunderground v.1.15,2013-05-16 10:07:00,
2013-05-16 06:09:00,64.9,55.3,29.82,West,260,0.0,2.0,71,0.00,,,0.00,Wunderground v.1.15,2013-05-16 10:09:00,
2013-05-16 06:11:00,64.8,55.2,29.82,West,260,0.0,0.0,71,0.00,,,0.00,Wunderground v.1.15,2013-05-16 10:11:00,
2013-05-16 06:12:00,64.8,55.2,29.82,West,260,0.0,0.0,71,0.00,,,0.00,Wunderground v.1.15,2013-05-16 10:12:00,
2013-05-16 06:14:00,64.6,55.0,29.82,West,260,0.0,1.0,71,0.00,,,0.00,Wunderground v.1.15,2013-05-16 10:14:00,
2013-05-16 06:16:00,64.5,54.9,29.82,West,276,0.0,2.0,71,0.00,,,0.00,Wunderground v.1.15,2013-05-16 10:16:00,
2013-05-16 06:17:00,64.5,54.9,29.82,West,276,0.0,2.0,71,0.00,,,0.00,Wunderground v.1.15,2013-05-16 10:17:00,
2013-05-16 06:19:00,64.4,55.2,29.83,WSW,248,0.0,2.0,72,0.00,,,0.00,Wunderground v.1.15,2013-05-16 10:19:00,
2013-05-16 06:22:00,64.3,55.1,29.83,WSW,248,0.0,0.0,72,0.00,,,0.00,Wunderground v.1.15,2013-05-16 10:22:00,
2013-05-16 06:24:00,64.3,55.1,29.83,WSW,248,0.0,0.0,72,0.00,,,0.00,Wunderground v.1.15,2013-05-16 10:24:00,
2013-05-16 06:27:00,64.2,55.0,29.83,WSW,248,0.0,0.0,72,0.00,,,0.00,Wunderground v.1.15,2013-05-16 10:27:00,
2013-05-16 06:28:00,64.2,55.0,29.83,WSW,248,0.0,0.0,72,0.00,,,0.00,Wunderground v.1.15,2013-05-16 10:28:00,
2013-05-16 06:29:00,64.2,55.0,29.83,WSW,248,0.0,0.0,72,0.00,,,0.00,Wunderground v.1.15,2013-05-16 10:29:00,
2013-05-16 06:32:00,64.1,54.9,29.83,WSW,248,0.0,0.0,72,0.00,,,0.00,Wunderground v.1.15,2013-05-16 10:32:00,
2013-05-16 06:33:00,64.0,55.2,29.83,WSW,248,0.0,0.0,73,0.00,,,0.00,Wunderground v.1.15,2013-05-16 10:33:00,
2013-05-16 06:34:00,64.0,54.8,29.83,WSW,250,0.0,0.0,72,0.00,,,0.00,Wunderground v.1.15,2013-05-16 10:34:00,
2013-05-16 06:37:00,63.8,55.0,29.83,WSW,250,0.0,0.0,73,0.00,,,0.00,Wunderground v.1.15,2013-05-16 10:37:00,
2013-05-16 06:38:00,63.8,55.0,29.83,WSW,250,0.0,0.0,73,0.00,,,0.00,Wunderground v.1.15,2013-05-16 10:38:00,
2013-05-16 06:39:00,63.8,55.0,29.83,WSW,250,0.0,0.0,73,0.00,,,0.00,Wunderground v.1.15,2013-05-16 10:39:00,
2013-05-16 06:42:00,63.7,54.9,29.83,WSW,253,0.0,0.0,73,0.00,,,0.00,Wunderground v.1.15,2013-05-16 10:42:00,
2013-05-16 06:43:00,63.6,54.8,29.83,WSW,253,0.0,0.0,73,0.00,,,0.00,Wunderground v.1.15,2013-05-16 10:43:00,
2013-05-16 06:45:00,63.7,54.9,29.83,WSW,253,0.0,0.0,73,0.00,,,0.00,Wunderground v.1.15,2013-05-16 10:45:00,
2013-05-16 06:47:00,63.8,55.0,29.83,WSW,253,0.0,0.0,73,0.00,,,0.00,Wunderground v.1.15,2013-05-16 10:47:00,
2013-05-16 06:48:00,63.8,55.0,29.83,WSW,253,0.0,0.0,73,0.00,,,0.00,Wunderground v.1.15,2013-05-16 10:48:00,
2013-05-16 06:50:00,63.8,55.0,29.83,WSW,253,0.0,0.0,73,0.00,,,0.00,Wunderground v.1.15,2013-05-16 10:50:00,
2013-05-16 06:52:00,63.8,55.0,29.83,WSW,253,0.0,0.0,73,0.00,,,0.00,Wunderground v.1.15,2013-05-16 10:52:00,
2013-05-16 06:53:00,63.8,55.0,29.84,WSW,253,0.0,0.0,73,0.00,,,0.00,Wunderground v.1.15,2013-05-16 10:53:00,
2013-05-16 06:54:00,63.8,55.0,29.84,WSW,253,0.0,0.0,73,0.00,,,0.00,Wunderground v.1.15,2013-05-16 10:54:00,
2013-05-16 06:56:00,63.8,55.0,29.84,WSW,254,0.0,0.0,73,0.00,,,0.00,Wunderground v.1.15,2013-05-16 10:56:00,
2013-05-16 06:58:00,63.8,55.0,29.84,WSW,254,0.0,0.0,73,0.00,,,0.00,Wunderground v.1.15,2013-05-16 10:58:00,
2013-05-16 06:59:00,63.7,54.9,29.84,WSW,254,0.0,0.0,73,0.00,,,0.00,Wunderground v.1.15,2013-05-16 10:59:00,
2013-05-16 07:01:00,63.7,54.9,29.84,WSW,254,0.0,0.0,73,0.00,,,0.00,Wunderground v.1.15,2013-05-16 11:01:00,
2013-05-16 07:03:00,63.7,54.9,29.84,WSW,254,0.0,0.0,73,0.00,,,0.00,Wunderground v.1.15,2013-05-16 11:03:00,
2013-05-16 07:04:00,63.7,54.9,29.84,WSW,254,0.0,0.0,73,0.00,,,0.00,Wunderground v.1.15,2013-05-16 11:04:00,
2013-05-16 07:06:00,63.7,54.9,29.84,WSW,254,0.0,0.0,73,0.00,,,0.00,Wunderground v.1.15,2013-05-16 11:06:00,
2013-05-16 07:08:00,63.6,54.8,29.84,WSW,254,0.0,0.0,73,0.00,,,0.00,Wunderground v.1.15,2013-05-16 11:08:00,
2013-05-16 07:09:00,63.6,54.8,29.84,WSW,254,0.0,0.0,73,0.00,,,0.00,Wunderground v.1.15,2013-05-16 11:09:00,
2013-05-16 07:10:00,63.6,54.8,29.84,WSW,254,0.0,0.0,73,0.00,,,0.00,Wunderground v.1.15,2013-05-16 11:10:00,
2013-05-16 07:11:00,63.6,54.8,29.84,WSW,254,0.0,0.0,73,0.00,,,0.00,Wunderground v.1.15,2013-05-16 11:11:00,
2013-05-16 07:13:00,63.6,54.8,29.84,WSW,254,1.0,2.0,73,0.00,,,0.00,Wunderground v.1.15,2013-05-16 11:13:00,
2013-05-16 07:14:00,63.6,54.8,29.84,WSW,254,0.0,2.0,73,0.00,,,0.00,Wunderground v.1.15,2013-05-16 11:14:00,
2013-05-16 07:15:00,63.5,54.7,29.84,WSW,254,0.0,2.0,73,0.00,,,0.00,Wunderground v.1.15,2013-05-16 11:15:00,
2013-05-16 07:16:00,63.5,54.7,29.84,WSW,254,0.0,2.0,73,0.00,,,0.00,Wunderground v.1.15,2013-05-16 11:16:00,
2013-05-16 07:19:00,63.5,55.1,29.84,WSW,254,0.0,2.0,74,0.00,,,0.00,Wunderground v.1.15,2013-05-16 11:19:00,
2013-05-16 07:20:00,63.4,55.0,29.84,WSW,254,0.0,0.0,74,0.00,,,0.00,Wunderground v.1.15,2013-05-16 11:20:00,
2013-05-16 07:22:00,63.4,55.0,29.84,WSW,254,0.0,0.0,74,0.00,,,0.00,Wunderground v.1.15,2013-05-16 11:22:00,
2013-05-16 07:24:00,63.4,55.0,29.84,WSW,254,0.0,0.0,74,0.00,,,0.00,Wunderground v.1.15,2013-05-16 11:24:00,
2013-05-16 07:26:00,63.4,55.0,29.84,WSW,254,0.0,0.0,74,0.00,,,0.00,Wunderground v.1.15,2013-05-16 11:26:00,
2013-05-16 07:27:00,63.4,55.0,29.84,WSW,254,0.0,0.0,74,0.00,,,0.00,Wunderground v.1.15,2013-05-16 11:27:00,
2013-05-16 07:29:00,63.4,55.0,29.84,WSW,254,0.0,0.0,74,0.00,,,0.00,Wunderground v.1.15,2013-05-16 11:29:00,
2013-05-16 07:31:00,63.3,54.9,29.84,WSW,254,0.0,0.0,74,0.00,,,0.00,Wunderground v.1.15,2013-05-16 11:31:00,
2013-05-16 07:32:00,63.3,54.9,29.84,WSW,254,0.0,0.0,74,0.00,,,0.00,Wunderground v.1.15,2013-05-16 11:32:00,
2013-05-16 07:34:00,63.4,55.3,29.84,WSW,254,0.0,0.0,75,0.00,,,0.00,Wunderground v.1.15,2013-05-16 11:34:00,
2013-05-16 07:35:00,63.4,55.3,29.84,WSW,254,0.0,0.0,75,0.00,,,0.00,Wunderground v.1.15,2013-05-16 11:35:00,
2013-05-16 07:36:00,63.4,55.3,29.85,WSW,254,0.0,0.0,75,0.00,,,0.00,Wunderground v.1.15,2013-05-16 11:36:00,
2013-05-16 07:39:00,63.4,55.3,29.85,WSW,254,0.0,0.0,75,0.00,,,0.00,Wunderground v.1.15,2013-05-16 11:39:00,
2013-05-16 07:40:00,63.4,55.3,29.85,WSW,254,0.0,0.0,75,0.00,,,0.00,Wunderground v.1.15,2013-05-16 11:40:00,
2013-05-16 07:41:00,63.3,55.2,29.85,WSW,254,1.0,2.0,75,0.00,,,0.00,Wunderground v.1.15,2013-05-16 11:41:00,
2013-05-16 07:44:00,63.4,55.3,29.85,WSW,254,0.0,2.0,75,0.00,,,0.00,Wunderground v.1.15,2013-05-16 11:44:00,
2013-05-16 07:45:00,63.4,55.3,29.85,WSW,254,0.0,2.0,75,0.00,,,0.00,Wunderground v.1.15,2013-05-16 11:45:00,
2013-05-16 07:46:00,63.4,55.3,29.85,WSW,254,0.0,2.0,75,0.00,,,0.00,Wunderground v.1.15,2013-05-16 11:46:00,
2013-05-16 07:50:00,63.4,55.3,29.85,WSW,254,1.0,1.0,75,0.00,,,0.00,Wunderground v.1.15,2013-05-16 11:50:00,
2013-05-16 07:51:00,63.4,55.3,29.85,WSW,254,0.0,1.0,75,0.00,,,0.00,Wunderground v.1.15,2013-05-16 11:51:00,
2013-05-16 07:56:00,63.6,55.5,29.85,West,269,0.0,1.0,75,0.00,,,0.00,Wunderground v.1.15,2013-05-16 11:56:00,
2013-05-16 07:57:00,63.6,55.5,29.85,West,264,3.0,3.0,75,0.00,,,0.00,Wunderground v.1.15,2013-05-16 11:57:00,
2013-05-16 08:01:00,63.9,55.8,29.85,SW,229,0.0,6.0,75,0.00,,,0.00,Wunderground v.1.15,2013-05-16 12:01:00,
2013-05-16 08:02:00,64.0,55.9,29.85,SW,232,0.0,6.0,75,0.00,,,0.00,Wunderground v.1.15,2013-05-16 12:02:00,
2013-05-16 08:06:00,64.2,56.1,29.85,SW,225,3.0,6.0,75,0.00,,,0.00,Wunderground v.1.15,2013-05-16 12:06:00,
2013-05-16 08:07:00,64.2,56.1,29.85,SW,225,0.0,6.0,75,0.00,,,0.00,Wunderground v.1.15,2013-05-16 12:07:00,
2013-05-16 08:08:00,64.3,55.8,29.85,SW,225,0.0,6.0,74,0.00,,,0.00,Wunderground v.1.15,2013-05-16 12:08:00,
2013-05-16 08:12:00,64.5,55.7,29.85,WSW,240,1.0,6.0,73,0.00,,,0.00,Wunderground v.1.15,2013-05-16 12:12:00,
2013-05-16 08:13:00,64.6,55.7,29.85,SW,235,2.0,6.0,73,0.00,,,0.00,Wunderground v.1.15,2013-05-16 12:13:00,
2013-05-16 08:17:00,64.9,56.0,29.86,WSW,246,0.0,6.0,73,0.00,,,0.00,Wunderground v.1.15,2013-05-16 12:17:00,
2013-05-16 08:18:00,64.9,56.0,29.86,WSW,246,2.0,6.0,73,0.00,,,0.00,Wunderground v.1.15,2013-05-16 12:18:00,
2013-05-16 08:19:00,65.0,56.5,29.85,SW,235,4.0,6.0,74,0.00,,,0.00,Wunderground v.1.15,2013-05-16 12:19:00,
2013-05-16 08:22:00,65.2,56.3,29.85,SW,222,1.0,4.0,73,0.00,,,0.00,Wunderground v.1.15,2013-05-16 12:22:00,
2013-05-16 08:23:00,65.3,56.8,29.86,SW,220,2.0,4.0,74,0.00,,,0.00,Wunderground v.1.15,2013-05-16 12:23:00,
2013-05-16 08:24:00,65.4,56.5,29.86,SW,227,0.0,4.0,73,0.00,,,0.00,Wunderground v.1.15,2013-05-16 12:24:00,
2013-05-16 08:27:00,65.5,56.2,29.86,SW,221,0.0,7.0,72,0.00,,,0.00,Wunderground v.1.15,2013-05-16 12:27:00,
2013-05-16 08:28:00,65.6,56.7,29.86,SW,224,3.0,7.0,73,0.00,,,0.00,Wunderground v.1.15,2013-05-16 12:28:00,
2013-05-16 08:29:00,65.7,56.8,29.86,SW,224,2.0,7.0,73,0.00,,,0.00,Wunderground v.1.15,2013-05-16 12:29:00,
2013-05-16 08:32:00,65.8,56.5,29.86,SW,233,2.0,4.0,72,0.00,,,0.00,Wunderground v.1.15,2013-05-16 12:32:00,
2013-05-16 08:33:00,65.8,56.5,29.85,SW,233,3.0,4.0,72,0.00,,,0.00,Wunderground v.1.15,2013-05-16 12:33:00,
2013-05-16 08:35:00,65.9,57.0,29.85,SW,235,0.0,4.0,73,0.00,,,0.00,Wunderground v.1.15,2013-05-16 12:35:00,
2013-05-16 08:37:00,65.9,57.0,29.85,SW,229,2.0,5.0,73,0.00,,,0.00,Wunderground v.1.15,2013-05-16 12:37:00,
2013-05-16 08:38:00,65.9,57.0,29.86,WSW,249,2.0,5.0,73,0.00,,,0.00,Wunderground v.1.15,2013-05-16 12:38:00,
2013-05-16 08:40:00,65.9,57.0,29.86,West,267,1.0,3.0,73,0.00,,,0.00,Wunderground v.1.15,2013-05-16 12:40:00,
2013-05-16 08:43:00,66.0,57.5,29.86,SW,223,0.0,5.0,74,0.00,,,0.00,Wunderground v.1.15,2013-05-16 12:43:00,
2013-05-16 08:44:00,66.1,57.6,29.86,SW,225,1.0,5.0,74,0.00,,,0.00,Wunderground v.1.15,2013-05-16 12:44:00,
2013-05-16 08:45:00,66.1,57.6,29.86,WSW,257,1.0,7.0,74,0.00,,,0.00,Wunderground v.1.15,2013-05-16 12:45:00,
2013-05-16 08:48:00,66.3,57.0,29.86,SW,233,2.0,7.0,72,0.00,,,0.00,Wunderground v.1.15,2013-05-16 12:48:00,
2013-05-16 08:49:00,66.4,57.5,29.86,WSW,238,2.0,7.0,73,0.00,,,0.00,Wunderground v.1.15,2013-05-16 12:49:00,
2013-05-16 08:50:00,66.5,57.6,29.86,NW,310,6.0,6.0,73,0.00,,,0.00,Wunderground v.1.15,2013-05-16 12:50:00,
2013-05-16 08:53:00,66.7,57.4,29.86,WSW,239,4.0,8.0,72,0.00,,,0.00,Wunderground v.1.15,2013-05-16 12:53:00,
2013-05-16 08:54:00,66.7,57.0,29.86,WSW,242,3.0,8.0,71,0.00,,,0.00,Wunderground v.1.15,2013-05-16 12:54:00,
2013-05-16 08:55:00,66.8,57.1,29.86,SW,232,1.0,8.0,71,0.00,,,0.00,Wunderground v.1.15,2013-05-16 12:55:00,
2013-05-16 08:59:00,67.0,57.7,29.86,NW,307,5.0,8.0,72,0.00,,,0.00,Wunderground v.1.15,2013-05-16 12:59:00,
2013-05-16 09:00:00,67.1,57.8,29.86,WSW,246,1.0,4.0,72,0.00,,,0.00,Wunderground v.1.15,2013-05-16 13:00:00,
2013-05-16 09:04:00,67.4,57.7,29.86,West,273,4.0,9.0,71,0.00,,,0.00,Wunderground v.1.15,2013-05-16 13:04:00,
2013-05-16 09:05:00,67.6,58.2,29.86,SW,233,2.0,9.0,72,0.00,,,0.00,Wunderground v.1.15,2013-05-16 13:05:00,
2013-05-16 09:09:00,68.0,58.6,29.86,SW,236,7.0,9.0,72,0.00,,,0.00,Wunderground v.1.15,2013-05-16 13:09:00,
2013-05-16 09:10:00,68.0,58.2,29.86,SSW,209,5.0,5.0,71,0.00,,,0.00,Wunderground v.1.15,2013-05-16 13:10:00,
2013-05-16 09:11:00,68.2,58.8,29.86,SW,225,4.0,6.0,72,0.00,,,0.00,Wunderground v.1.15,2013-05-16 13:11:00,
2013-05-16 09:14:00,68.4,58.2,29.86,WNW,295,5.0,11.0,70,0.00,,,0.00,Wunderground v.1.15,2013-05-16 13:14:00,
2013-05-16 09:15:00,68.5,58.3,29.86,SSW,210,5.0,11.0,70,0.00,,,0.00,Wunderground v.1.15,2013-05-16 13:15:00,
2013-05-16 09:17:00,68.6,58.8,29.86,SW,225,6.0,11.0,71,0.00,,,0.00,Wunderground v.1.15,2013-05-16 13:17:00,
2013-05-16 09:19:00,68.6,58.0,29.86,WNW,287,5.0,12.0,69,0.00,,,0.00,Wunderground v.1.15,2013-05-16 13:19:00,
2013-05-16 09:20:00,68.7,58.1,29.87,West,271,4.0,6.0,69,0.00,,,0.00,Wunderground v.1.15,2013-05-16 13:20:00,
2013-05-16 09:22:00,68.8,58.6,29.86,SW,229,4.0,8.0,70,0.00,,,0.00,Wunderground v.1.15,2013-05-16 13:22:00,
2013-05-16 09:24:00,68.9,58.7,29.87,West,281,5.0,8.0,70,0.00,,,0.00,Wunderground v.1.15,2013-05-16 13:24:00,
2013-05-16 09:25:00,69.0,59.2,29.86,WNW,289,4.0,8.0,71,0.00,,,0.00,Wunderground v.1.15,2013-05-16 13:25:00,
2013-05-16 09:27:00,69.1,59.3,29.87,WSW,238,6.0,8.0,71,0.00,,,0.00,Wunderground v.1.15,2013-05-16 13:27:00,
2013-05-16 09:29:00,69.2,59.0,29.87,West,273,3.0,8.0,70,0.00,,,0.00,Wunderground v.1.15,2013-05-16 13:29:00,
2013-05-16 09:30:00,69.2,59.0,29.86,WSW,243,5.0,7.0,70,0.00,,,0.00,Wunderground v.1.15,2013-05-16 13:30:00,
2013-05-16 09:32:00,69.3,59.1,29.87,WNW,289,5.0,7.0,70,0.00,,,0.00,Wunderground v.1.15,2013-05-16 13:32:00,
2013-05-16 09:35:00,69.4,59.2,29.87,SW,224,4.0,9.0,70,0.00,,,0.00,Wunderground v.1.15,2013-05-16 13:35:00,
2013-05-16 09:37:00,69.6,59.8,29.87,WSW,240,2.0,9.0,71,0.00,,,0.00,Wunderground v.1.15,2013-05-16 13:37:00,
2013-05-16 09:40:00,69.7,59.5,29.87,West,277,7.0,9.0,70,0.00,,,0.00,Wunderground v.1.15,2013-05-16 13:40:00,
2013-05-16 09:42:00,69.8,59.6,29.87,WSW,241,4.0,9.0,70,0.00,,,0.00,Wunderground v.1.15,2013-05-16 13:42:00,
2013-05-16 09:45:00,70.0,59.8,29.87,WSW,244,3.0,9.0,70,0.00,,,0.00,Wunderground v.1.15,2013-05-16 13:45:00,
2013-05-16 09:46:00,70.0,59.8,29.87,SW,233,2.0,9.0,70,0.00,,,0.00,Wunderground v.1.15,2013-05-16 13:46:00,
2013-05-16 09:48:00,70.2,60.4,29.87,SW,223,8.0,9.0,71,0.00,,,0.00,Wunderground v.1.15,2013-05-16 13:48:00,
2013-05-16 09:50:00,70.3,60.1,29.87,West,281,2.0,9.0,70,0.00,,,0.00,Wunderground v.1.15,2013-05-16 13:50:00,
2013-05-16 09:51:00,70.4,60.1,29.87,WNW,301,9.0,11.0,70,0.00,,,0.00,Wunderground v.1.15,2013-05-16 13:51:00,
2013-05-16 09:53:00,70.5,60.6,29.87,WSW,243,6.0,11.0,71,0.00,,,0.00,Wunderground v.1.15,2013-05-16 13:53:00,
2013-05-16 09:55:00,70.6,60.7,29.87,SW,232,5.0,11.0,71,0.00,,,0.00,Wunderground v.1.15,2013-05-16 13:55:00,
2013-05-16 09:56:00,70.7,60.8,29.87,SW,232,5.0,11.0,71,0.00,,,0.00,Wunderground v.1.15,2013-05-16 13:56:00,
2013-05-16 09:58:00,70.8,60.1,29.87,WNW,293,9.0,11.0,69,0.00,,,0.00,Wunderground v.1.15,2013-05-16 13:58:00,
2013-05-16 10:00:00,70.9,61.0,29.87,WSW,247,4.0,6.0,71,0.00,,,0.00,Wunderground v.1.15,2013-05-16 14:00:00,
2013-05-16 10:01:00,71.0,61.5,29.87,SW,228,9.0,11.0,72,0.00,,,0.00,Wunderground v.1.15,2013-05-16 14:01:00,
2013-05-16 10:02:00,71.0,60.7,29.87,WSW,238,4.0,11.0,70,0.00,,,0.00,Wunderground v.1.15,2013-05-16 14:02:00,
2013-05-16 10:03:00,71.1,61.2,29.87,SSW,192,7.0,11.0,71,0.00,,,0.00,Wunderground v.1.15,2013-05-16 14:03:00,
2013-05-16 10:05:00,71.4,61.9,29.87,SW,231,7.0,11.0,72,0.00,,,0.00,Wunderground v.1.15,2013-05-16 14:05:00,
2013-05-16 10:06:00,71.5,61.6,29.87,WSW,242,6.0,11.0,71,0.00,,,0.00,Wunderground v.1.15,2013-05-16 14:06:00,
2013-05-16 10:07:00,71.6,61.3,29.87,WSW,238,7.0,11.0,70,0.00,,,0.00,Wunderground v.1.15,2013-05-16 14:07:00,
2013-05-16 10:08:00,71.8,61.5,29.87,SW,227,7.0,11.0,70,0.00,,,0.00,Wunderground v.1.15,2013-05-16 14:08:00,
2013-05-16 10:10:00,71.9,61.6,29.87,WSW,245,3.0,8.0,70,0.00,,,0.00,Wunderground v.1.15,2013-05-16 14:10:00,
2013-05-16 10:11:00,72.0,61.7,29.87,SW,230,4.0,8.0,70,0.00,,,0.00,Wunderground v.1.15,2013-05-16 14:11:00,
2013-05-16 10:12:00,72.0,61.7,29.87,WNW,301,8.0,9.0,70,0.00,,,0.00,Wunderground v.1.15,2013-05-16 14:12:00,
2013-05-16 10:13:00,72.1,61.8,29.87,WNW,297,11.0,11.0,70,0.00,,,0.00,Wunderground v.1.15,2013-05-16 14:13:00,
2013-05-16 10:15:00,72.1,61.8,29.87,WNW,302,7.0,12.0,70,0.00,,,0.00,Wunderground v.1.15,2013-05-16 14:15:00,
2013-05-16 10:16:00,72.1,61.4,29.87,WNW,301,11.0,12.0,69,0.00,,,0.00,Wunderground v.1.15,2013-05-16 14:16:00,
2013-05-16 10:17:00,72.1,61.8,29.87,WSW,244,3.0,12.0,70,0.00,,,0.00,Wunderground v.1.15,2013-05-16 14:17:00,
2013-05-16 10:18:00,72.3,62.4,29.87,WNW,298,8.0,12.0,71,0.00,,,0.00,Wunderground v.1.15,2013-05-16 14:18:00,
2013-05-16 10:20:00,72.4,62.1,29.87,SW,233,3.0,9.0,70,0.00,,,0.00,Wunderground v.1.15,2013-05-16 14:20:00,
2013-05-16 10:21:00,72.4,62.1,29.87,SW,233,7.0,10.0,70,0.00,,,0.00,Wunderground v.1.15,2013-05-16 14:21:00,
2013-05-16 10:22:00,72.4,62.5,29.87,WSW,244,6.0,10.0,71,0.00,,,0.00,Wunderground v.1.15,2013-05-16 14:22:00,
2013-05-16 10:24:00,72.6,62.7,29.87,WSW,239,5.0,10.0,71,0.00,,,0.00,Wunderground v.1.15,2013-05-16 14:24:00,
2013-05-16 10:25:00,72.6,61.8,29.87,SW,232,7.0,10.0,69,0.00,,,0.00,Wunderground v.1.15,2013-05-16 14:25:00,
2013-05-16 10:27:00,72.6,62.3,29.87,SW,226,4.0,10.0,70,0.00,,,0.00,Wunderground v.1.15,2013-05-16 14:27:00,
2013-05-16 10:30:00,72.8,62.0,29.87,WSW,241,4.0,6.0,69,0.00,,,0.00,Wunderground v.1.15,2013-05-16 14:30:00,
2013-05-16 10:31:00,72.8,62.4,29.87,SW,233,4.0,8.0,70,0.00,,,0.00,Wunderground v.1.15,2013-05-16 14:31:00,
2013-05-16 10:32:00,72.9,62.9,29.87,WSW,246,5.0,8.0,71,0.00,,,0.00,Wunderground v.1.15,2013-05-16 14:32:00,
2013-05-16 10:35:00,73.2,63.2,29.87,WNW,302,7.0,10.0,71,0.00,,,0.00,Wunderground v.1.15,2013-05-16 14:35:00,
2013-05-16 10:36:00,73.2,62.8,29.87,WNW,286,8.0,10.0,70,0.00,,,0.00,Wunderground v.1.15,2013-05-16 14:36:00,
2013-05-16 10:37:00,73.2,62.8,29.87,NW,305,4.0,10.0,70,0.00,,,0.00,Wunderground v.1.15,2013-05-16 14:37:00,
2013-05-16 10:40:00,73.1,62.7,29.87,SW,227,5.0,10.0,70,0.00,,,0.00,Wunderground v.1.15,2013-05-16 14:40:00,
2013-05-16 10:41:00,73.1,62.7,29.87,SW,217,3.0,10.0,70,0.00,,,0.00,Wunderground v.1.15,2013-05-16 14:41:00,
2013-05-16 10:42:00,73.2,63.2,29.87,WNW,297,0.0,10.0,71,0.00,,,0.00,Wunderground v.1.15,2013-05-16 14:42:00,
2013-05-16 10:45:00,73.3,63.3,29.87,SSW,194,8.0,12.0,71,0.00,,,0.00,Wunderground v.1.15,2013-05-16 14:45:00,
2013-05-16 10:46:00,73.4,63.8,29.87,SSW,211,6.0,12.0,72,0.00,,,0.00,Wunderground v.1.15,2013-05-16 14:46:00,
2013-05-16 10:47:00,73.4,63.0,29.87,WNW,294,7.0,12.0,70,0.00,,,0.00,Wunderground v.1.15,2013-05-16 14:47:00,
2013-05-16 10:50:00,73.5,63.9,29.87,SW,220,9.0,9.0,72,0.00,,,0.00,Wunderground v.1.15,2013-05-16 14:50:00,
2013-05-16 10:51:00,73.5,63.5,29.87,SW,233,11.0,11.0,71,0.00,,,0.00,Wunderground v.1.15,2013-05-16 14:51:00,
2013-05-16 10:52:00,73.5,63.5,29.87,SW,233,4.0,12.0,71,0.00,,,0.00,Wunderground v.1.15,2013-05-16 14:52:00,
2013-05-16 10:53:00,73.6,63.2,29.87,WNW,292,10.0,12.0,70,0.00,,,0.00,Wunderground v.1.15,2013-05-16 14:53:00,
2013-05-16 10:55:00,73.5,63.5,29.87,SW,222,3.0,12.0,71,0.00,,,0.00,Wunderground v.1.15,2013-05-16 14:55:00,
2013-05-16 10:56:00,73.5,63.9,29.87,WNW,303,5.0,12.0,72,0.00,,,0.00,Wunderground v.1.15,2013-05-16 14:56:00,
2013-05-16 10:58:00,73.5,64.3,29.87,SW,223,4.0,12.0,73,0.00,,,0.00,Wunderground v.1.15,2013-05-16 14:58:00,
2013-05-16 11:00:00,73.8,65.0,29.87,WNW,298,3.0,6.0,74,0.00,,,0.00,Wunderground v.1.15,2013-05-16 15:00:00,
2013-05-16 11:01:00,74.0,64.8,29.87,WSW,238,4.0,8.0,73,0.00,,,0.00,Wunderground v.1.15,2013-05-16 15:01:00,
2013-05-16 11:03:00,74.2,65.0,29.87,WSW,251,8.0,10.0,73,0.00,,,0.00,Wunderground v.1.15,2013-05-16 15:03:00,
2013-05-16 11:06:00,74.4,64.8,29.87,WNW,293,6.0,10.0,72,0.00,,,0.00,Wunderground v.1.15,2013-05-16 15:06:00,
2013-05-16 11:07:00,74.3,64.7,29.87,SW,233,5.0,10.0,72,0.00,,,0.00,Wunderground v.1.15,2013-05-16 15:07:00,
2013-05-16 11:08:00,74.2,64.2,29.87,SW,229,2.0,10.0,71,0.00,,,0.00,Wunderground v.1.15,2013-05-16 15:08:00,
2013-05-16 11:11:00,74.0,64.8,29.86,SW,214,5.0,7.0,73,0.00,,,0.00,Wunderground v.1.15,2013-05-16 15:11:00,
2013-05-16 11:12:00,74.0,64.8,29.86,WNW,285,5.0,7.0,73,0.00,,,0.00,Wunderground v.1.15,2013-05-16 15:12:00,
2013-05-16 11:13:00,73.9,64.3,29.86,SW,230,4.0,7.0,72,0.00,,,0.00,Wunderground v.1.15,2013-05-16 15:13:00,
2013-05-16 11:16:00,73.8,64.2,29.86,WNW,289,0.0,10.0,72,0.00,,,0.00,Wunderground v.1.15,2013-05-16 15:16:00,
2013-05-16 11:17:00,73.9,64.7,29.86,West,261,2.0,10.0,73,0.00,,,0.00,Wunderground v.1.15,2013-05-16 15:17:00,
2013-05-16 11:18:00,74.0,65.2,29.86,WSW,254,1.0,10.0,74,0.00,,,0.00,Wunderground v.1.15,2013-05-16 15:18:00,
2013-05-16 11:19:00,74.1,65.3,29.86,WSW,254,2.0,10.0,74,0.00,,,0.00,Wunderground v.1.15,2013-05-16 15:19:00,
2013-05-16 11:21:00,74.4,65.2,29.86,WNW,298,6.0,9.0,73,0.00,,,0.00,Wunderground v.1.15,2013-05-16 15:21:00,
2013-05-16 11:22:00,74.5,65.3,29.86,WNW,295,5.0,9.0,73,0.00,,,0.00,Wunderground v.1.15,2013-05-16 15:22:00,
2013-05-16 11:24:00,74.8,66.0,29.86,WNW,296,4.0,9.0,74,0.00,,,0.00,Wunderground v.1.15,2013-05-16 15:24:00,
2013-05-16 11:26:00,75.4,66.9,29.86,WSW,247,3.0,9.0,75,0.00,,,0.00,Wunderground v.1.15,2013-05-16 15:26:00,
2013-05-16 11:28:00,75.6,66.3,29.86,SW,232,7.0,9.0,73,0.00,,,0.00,Wunderground v.1.15,2013-05-16 15:28:00,
2013-05-16 11:29:00,75.7,66.0,29.86,SW,233,1.0,9.0,72,0.00,,,0.00,Wunderground v.1.15,2013-05-16 15:29:00,
2013-05-16 11:31:00,75.7,66.0,29.85,SW,232,4.0,6.0,72,0.00,,,0.00,Wunderground v.1.15,2013-05-16 15:31:00,
2013-05-16 11:33:00,75.9,67.0,29.85,SW,228,0.0,6.0,74,0.00,,,0.00,Wunderground v.1.15,2013-05-16 15:33:00,
2013-05-16 11:34:00,76.0,67.1,29.85,WSW,250,4.0,6.0,74,0.00,,,0.00,Wunderground v.1.15,2013-05-16 15:34:00,
2013-05-16 11:36:00,76.2,66.9,29.85,SW,226,3.0,6.0,73,0.00,,,0.00,Wunderground v.1.15,2013-05-16 15:36:00,
2013-05-16 11:38:00,76.1,66.0,29.85,SW,234,1.0,8.0,71,0.00,,,0.00,Wunderground v.1.15,2013-05-16 15:38:00,
2013-05-16 11:39:00,76.1,66.8,29.86,WNW,300,2.0,8.0,73,0.00,,,0.00,Wunderground v.1.15,2013-05-16 15:39:00,
2013-05-16 11:41:00,75.9,66.2,29.86,SW,233,4.0,6.0,72,0.00,,,0.00,Wunderground v.1.15,2013-05-16 15:41:00,
2013-05-16 11:43:00,75.9,66.2,29.86,SW,233,4.0,6.0,72,0.00,,,0.00,Wunderground v.1.15,2013-05-16 15:43:00,
2013-05-16 11:44:00,75.9,66.6,29.86,WSW,245,4.0,6.0,73,0.00,,,0.00,Wunderground v.1.15,2013-05-16 15:44:00,
2013-05-16 11:46:00,76.1,66.4,29.86,WSW,242,1.0,6.0,72,0.00,,,0.00,Wunderground v.1.15,2013-05-16 15:46:00,
2013-05-16 11:48:00,76.3,67.4,29.86,WSW,240,4.0,6.0,74,0.00,,,0.00,Wunderground v.1.15,2013-05-16 15:48:00,
2013-05-16 11:49:00,76.4,67.1,29.86,WSW,240,0.0,6.0,73,0.00,,,0.00,Wunderground v.1.15,2013-05-16 15:49:00,
2013-05-16 11:50:00,76.4,67.1,29.86,WSW,240,0.0,3.0,73,0.00,,,0.00,Wunderground v.1.15,2013-05-16 15:50:00,
2013-05-16 11:52:00,76.6,67.3,29.86,SW,228,2.0,5.0,73,0.00,,,0.00,Wunderground v.1.15,2013-05-16 15:52:00,
2013-05-16 11:54:00,77.0,67.7,29.86,SW,231,2.0,5.0,73,0.00,,,0.00,Wunderground v.1.15,2013-05-16 15:54:00,
2013-05-16 11:55:00,77.3,68.0,29.86,West,272,3.0,5.0,73,0.00,,,0.00,Wunderground v.1.15,2013-05-16 15:55:00,
2013-05-16 11:57:00,77.3,66.7,29.86,WNW,298,0.0,5.0,70,0.00,,,0.00,Wunderground v.1.15,2013-05-16 15:57:00,
2013-05-16 11:59:00,77.5,67.8,29.86,WSW,244,2.0,5.0,72,0.00,,,0.00,Wunderground v.1.15,2013-05-16 15:59:00,
2013-05-16 12:00:00,77.6,67.9,29.86,WSW,244,0.0,2.0,72,0.00,,,0.00,Wunderground v.1.15,2013-05-16 16:00:00,
2013-05-16 12:02:00,77.6,67.0,29.86,WSW,257,0.0,2.0,70,0.00,,,0.00,Wunderground v.1.15,2013-05-16 16:02:00,
2013-05-16 12:04:00,77.4,66.8,29.86,West,270,0.0,3.0,70,0.00,,,0.00,Wunderground v.1.15,2013-05-16 16:04:00,
2013-05-16 12:05:00,77.3,67.2,29.86,West,270,0.0,3.0,71,0.00,,,0.00,Wunderground v.1.15,2013-05-16 16:05:00,
2013-05-16 12:07:00,77.4,67.7,29.86,WNW,289,7.0,8.0,72,0.00,,,0.00,Wunderground v.1.15,2013-05-16 16:07:00,
2013-05-16 12:09:00,77.6,67.4,29.86,WNW,285,5.0,8.0,71,0.00,,,0.00,Wunderground v.1.15,2013-05-16 16:09:00,
2013-05-16 12:10:00,77.5,67.4,29.87,WNW,285,3.0,3.0,71,0.00,,,0.00,Wunderground v.1.15,2013-05-16 16:10:00,
2013-05-16 12:12:00,77.2,67.1,29.87,WNW,292,5.0,7.0,71,0.00,,,0.00,Wunderground v.1.15,2013-05-16 16:12:00,
2013-05-16 12:14:00,76.7,66.2,29.87,NW,304,4.0,7.0,70,0.00,,,0.00,Wunderground v.1.15,2013-05-16 16:14:00,
2013-05-16 12:15:00,76.5,66.0,29.87,NW,304,1.0,7.0,70,0.00,,,0.00,Wunderground v.1.15,2013-05-16 16:15:00,
2013-05-16 12:16:00,76.4,65.9,29.87,NW,304,5.0,7.0,70,0.00,,,0.00,Wunderground v.1.15,2013-05-16 16:16:00,
2013-05-16 12:17:00,76.1,65.6,29.88,WNW,294,3.0,9.0,70,0.00,,,0.00,Wunderground v.1.15,2013-05-16 16:17:00,
2013-05-16 12:19:00,75.7,65.6,29.88,WNW,292,3.0,9.0,71,0.00,,,0.00,Wunderground v.1.15,2013-05-16 16:19:00,
2013-05-16 12:20:00,75.5,65.4,29.88,WNW,291,2.0,6.0,71,0.00,,,0.00,Wunderground v.1.15,2013-05-16 16:20:00,
2013-05-16 12:21:00,75.5,65.4,29.88,WNW,291,2.0,6.0,71,0.00,,,0.00,Wunderground v.1.15,2013-05-16 16:21:00,
2013-05-16 12:23:00,75.1,65.1,29.88,WNW,291,0.0,6.0,71,0.00,,,0.00,Wunderground v.1.15,2013-05-16 16:23:00,
2013-05-16 12:25:00,74.9,65.7,29.88,WNW,291,0.0,6.0,73,0.00,,,0.00,Wunderground v.1.15,2013-05-16 16:25:00,
2013-05-16 12:26:00,74.9,65.7,29.88,WNW,291,0.0,6.0,73,0.00,,,0.00,Wunderground v.1.15,2013-05-16 16:26:00,
2013-05-16 12:27:00,74.8,65.6,29.88,West,280,3.0,6.0,73,0.00,,,0.00,Wunderground v.1.15,2013-05-16 16:27:00,
2013-05-16 12:28:00,74.8,65.6,29.88,WNW,286,3.0,6.0,73,0.00,,,0.00,Wunderground v.1.15,2013-05-16 16:28:00,
2013-05-16 12:30:00,74.6,65.4,29.88,WNW,291,0.0,1.0,73,0.00,,,0.00,Wunderground v.1.15,2013-05-16 16:30:00,
2013-05-16 12:31:00,74.6,65.8,29.88,WNW,291,0.0,1.0,74,0.00,,,0.00,Wunderground v.1.15,2013-05-16 16:31:00,
2013-05-16 12:32:00,74.7,66.2,29.88,WNW,291,0.0,1.0,75,0.00,,,0.00,Wunderground v.1.15,2013-05-16 16:32:00,
2013-05-16 12:33:00,74.7,65.9,29.88,WNW,291,0.0,4.0,74,0.00,,,0.00,Wunderground v.1.15,2013-05-16 16:33:00,
2013-05-16 12:35:00,74.7,65.9,29.88,WNW,291,1.0,4.0,74,0.00,,,0.00,Wunderground v.1.15,2013-05-16 16:35:00,
2013-05-16 12:36:00,74.8,66.0,29.87,WNW,291,0.0,4.0,74,0.00,,,0.00,Wunderground v.1.15,2013-05-16 16:36:00,
2013-05-16 12:37:00,74.8,66.0,29.87,WNW,291,0.0,4.0,74,0.00,,,0.00,Wunderground v.1.15,2013-05-16 16:37:00,
2013-05-16 12:39:00,75.0,66.5,29.87,WNW,291,0.0,4.0,75,0.00,,,0.00,Wunderground v.1.15,2013-05-16 16:39:00,
2013-05-16 12:41:00,75.6,67.5,29.87,NNE,15,0.0,1.0,76,0.00,,,0.00,Wunderground v.1.15,2013-05-16 16:41:00,
2013-05-16 12:42:00,75.7,67.6,29.87,NNE,15,0.0,1.0,76,0.00,,,0.00,Wunderground v.1.15,2013-05-16 16:42:00,
2013-05-16 12:44:00,75.9,67.4,29.87,North,360,0.0,3.0,75,0.00,,,0.00,Wunderground v.1.15,2013-05-16 16:44:00,
2013-05-16 12:46:00,76.2,66.9,29.87,North,360,0.0,3.0,73,0.00,,,0.00,Wunderground v.1.15,2013-05-16 16:46:00,
2013-05-16 12:47:00,76.2,66.9,29.87,NNW,347,2.0,3.0,73,0.00,,,0.00,Wunderground v.1.15,2013-05-16 16:47:00,
2013-05-16 12:48:00,76.2,67.3,29.87,NNW,341,0.0,3.0,74,0.00,,,0.00,Wunderground v.1.15,2013-05-16 16:48:00,
2013-05-16 12:49:00,76.2,66.9,29.87,NNW,341,0.0,3.0,73,0.00,,,0.00,Wunderground v.1.15,2013-05-16 16:49:00,
2013-05-16 12:51:00,76.2,67.3,29.87,NNW,341,0.0,3.0,74,0.00,,,0.00,Wunderground v.1.15,2013-05-16 16:51:00,
2013-05-16 12:52:00,76.2,67.3,29.87,NNW,341,0.0,3.0,74,0.00,,,0.00,Wunderground v.1.15,2013-05-16 16:52:00,
2013-05-16 12:53:00,76.2,67.7,29.87,NNW,341,0.0,3.0,75,0.00,,,0.00,Wunderground v.1.15,2013-05-16 16:53:00,
2013-05-16 12:54:00,76.3,67.4,29.87,NNW,341,0.0,3.0,74,0.00,,,0.00,Wunderground v.1.15,2013-05-16 16:54:00,
2013-05-16 12:56:00,76.4,67.5,29.87,NNW,341,0.0,3.0,74,0.00,,,0.00,Wunderground v.1.15,2013-05-16 16:56:00,
2013-05-16 12:57:00,76.4,67.5,29.87,NNW,341,0.0,3.0,74,0.00,,,0.00,Wunderground v.1.15,2013-05-16 16:57:00,
2013-05-16 12:58:00,76.3,67.4,29.87,NNW,341,0.0,3.0,74,0.00,,,0.00,Wunderground v.1.15,2013-05-16 16:58:00,
2013-05-16 12:59:00,76.3,66.6,29.87,NNW,342,0.0,3.0,72,0.00,,,0.00,Wunderground v.1.15,2013-05-16 16:59:00,
2013-05-16 13:02:00,76.2,66.9,29.87,NNW,341,0.0,3.0,73,0.00,,,0.00,Wunderground v.1.15,2013-05-16 17:02:00,
2013-05-16 13:03:00,76.1,66.8,29.86,NNW,341,0.0,3.0,73,0.00,,,0.00,Wunderground v.1.15,2013-05-16 17:03:00,
2013-05-16 13:04:00,75.9,65.8,29.86,NNW,341,0.0,3.0,71,0.00,,,0.00,Wunderground v.1.15,2013-05-16 17:04:00,
2013-05-16 13:07:00,75.6,65.9,29.86,NNW,341,0.0,3.0,72,0.00,,,0.00,Wunderground v.1.15,2013-05-16 17:07:00,
2013-05-16 13:08:00,75.6,65.9,29.86,NNW,341,0.0,3.0,72,0.00,,,0.00,Wunderground v.1.15,2013-05-16 17:08:00,
2013-05-16 13:09:00,75.5,66.2,29.86,NNW,341,0.0,3.0,73,0.00,,,0.00,Wunderground v.1.15,2013-05-16 17:09:00,
2013-05-16 13:12:00,75.2,66.3,29.86,NNW,341,0.0,0.0,74,0.00,,,0.00,Wunderground v.1.15,2013-05-16 17:12:00,
2013-05-16 13:13:00,75.1,66.2,29.86,NNW,341,0.0,0.0,74,0.00,,,0.00,Wunderground v.1.15,2013-05-16 17:13:00,
2013-05-16 13:14:00,75.1,66.2,29.86,NNW,341,0.0,0.0,74,0.00,,,0.00,Wunderground v.1.15,2013-05-16 17:14:00,
2013-05-16 13:17:00,74.8,66.0,29.86,NNW,341,0.0,0.0,74,0.00,,,0.00,Wunderground v.1.15,2013-05-16 17:17:00,
2013-05-16 13:18:00,74.8,66.0,29.86,NNW,341,0.0,0.0,74,0.00,,,0.00,Wunderground v.1.15,2013-05-16 17:18:00,
2013-05-16 13:19:00,74.7,65.9,29.86,NNW,341,0.0,0.0,74,0.00,,,0.00,Wunderground v.1.15,2013-05-16 17:19:00,
2013-05-16 13:20:00,74.7,65.9,29.86,NNW,341,0.0,0.0,74,0.00,,,0.00,Wunderground v.1.15,2013-05-16 17:20:00,
2013-05-16 13:22:00,74.6,65.8,29.86,NNW,341,0.0,0.0,74,0.00,,,0.00,Wunderground v.1.15,2013-05-16 17:22:00,
2013-05-16 13:23:00,74.6,66.1,29.86,NNW,341,0.0,0.0,75,0.00,,,0.00,Wunderground v.1.15,2013-05-16 17:23:00,
2013-05-16 13:24:00,74.6,65.8,29.86,NNW,341,0.0,2.0,74,0.00,,,0.00,Wunderground v.1.15,2013-05-16 17:24:00,
2013-05-16 13:25:00,74.5,65.7,29.86,NNW,341,0.0,2.0,74,0.00,,,0.00,Wunderground v.1.15,2013-05-16 17:25:00,
2013-05-16 13:27:00,74.5,66.1,29.86,NNW,341,0.0,2.0,75,0.00,,,0.00,Wunderground v.1.15,2013-05-16 17:27:00,
2013-05-16 13:28:00,74.5,66.1,29.86,NNW,341,0.0,2.0,75,0.00,,,0.00,Wunderground v.1.15,2013-05-16 17:28:00,
2013-05-16 13:29:00,74.4,66.3,29.86,NNW,341,0.0,2.0,76,0.00,,,0.00,Wunderground v.1.15,2013-05-16 17:29:00,
2013-05-16 13:30:00,74.5,66.8,29.86,NNW,341,0.0,0.0,77,0.00,,,0.00,Wunderground v.1.15,2013-05-16 17:30:00,
2013-05-16 13:33:00,74.2,66.5,29.86,NNW,339,3.0,3.0,77,0.00,,,0.00,Wunderground v.1.15,2013-05-16 17:33:00,
2013-05-16 13:34:00,74.0,66.7,29.86,West,260,1.0,4.0,78,0.00,,,0.00,Wunderground v.1.15,2013-05-16 17:34:00,
2013-05-16 13:36:00,73.8,66.5,29.87,WSW,241,5.0,6.0,78,0.00,,,0.00,Wunderground v.1.15,2013-05-16 17:36:00,
2013-05-16 13:38:00,73.4,66.1,29.87,WSW,244,8.0,12.0,78,0.00,,,0.00,Wunderground v.1.15,2013-05-16 17:38:00,
2013-05-16 13:40:00,72.6,65.7,29.88,SW,216,8.0,8.0,79,0.00,,,0.00,Wunderground v.1.15,2013-05-16 17:40:00,
2013-05-16 13:41:00,72.4,65.5,29.88,SW,221,6.0,8.0,79,0.00,,,0.00,Wunderground v.1.15,2013-05-16 17:41:00,
2013-05-16 13:43:00,71.8,65.3,29.88,SW,229,5.0,8.0,80,0.00,,,0.00,Wunderground v.1.15,2013-05-16 17:43:00,
2013-05-16 13:44:00,71.3,65.2,29.88,SW,235,3.0,8.0,81,0.00,,,0.00,Wunderground v.1.15,2013-05-16 17:44:00,
2013-05-16 13:45:00,71.1,65.0,29.88,SW,228,2.0,8.0,81,0.00,,,0.00,Wunderground v.1.15,2013-05-16 17:45:00,
2013-05-16 13:46:00,71.1,65.0,29.89,SW,226,5.0,8.0,81,0.00,,,0.00,Wunderground v.1.15,2013-05-16 17:46:00,
2013-05-16 13:48:00,70.6,64.8,29.89,WNW,293,5.0,9.0,82,0.00,,,0.00,Wunderground v.1.15,2013-05-16 17:48:00,
2013-05-16 13:49:00,70.5,64.7,29.89,West,277,7.0,12.0,82,0.00,,,0.00,Wunderground v.1.15,2013-05-16 17:49:00,
2013-05-16 13:50:00,70.3,64.5,29.89,West,279,9.0,17.0,82,0.00,,,0.01,Wunderground v.1.15,2013-05-16 17:50:00,
2013-05-16 13:51:00,70.2,64.4,29.89,West,277,8.0,17.0,82,0.00,,,0.01,Wunderground v.1.15,2013-05-16 17:51:00,
2013-05-16 13:53:00,69.3,63.6,29.89,WNW,298,4.0,17.0,82,3.27,,,0.06,Wunderground v.1.15,2013-05-16 17:53:00,
2013-05-16 13:54:00,68.9,63.5,29.89,West,266,7.0,17.0,83,3.31,,,0.12,Wunderground v.1.15,2013-05-16 17:54:00,
2013-05-16 13:56:00,68.3,63.3,29.89,WNW,287,7.0,17.0,84,3.10,,,0.17,Wunderground v.1.15,2013-05-16 17:56:00,
2013-05-16 13:58:00,67.5,62.8,29.89,NW,304,14.0,17.0,85,8.00,,,0.28,Wunderground v.1.15,2013-05-16 17:58:00,
2013-05-16 13:59:00,67.3,62.6,29.88,WNW,290,13.0,18.0,85,8.23,,,0.34,Wunderground v.1.15,2013-05-16 17:59:00,
2013-05-16 14:01:00,66.9,62.6,29.88,WNW,292,3.0,11.0,86,4.97,,,0.48,Wunderground v.1.15,2013-05-16 18:01:00,
2013-05-16 14:03:00,66.5,62.5,29.88,WNW,296,9.0,13.0,87,0.68,,,0.58,Wunderground v.1.15,2013-05-16 18:03:00,
2013-05-16 14:04:00,66.5,62.5,29.88,West,279,7.0,13.0,87,0.43,,,0.58,Wunderground v.1.15,2013-05-16 18:04:00,
2013-05-16 14:06:00,66.3,62.3,29.88,WNW,292,4.0,13.0,87,0.71,,,0.60,Wunderground v.1.15,2013-05-16 18:06:00,
2013-05-16 14:08:00,66.2,62.5,29.88,SW,229,5.0,13.0,88,0.33,,,0.62,Wunderground v.1.15,2013-05-16 18:08:00,
2013-05-16 14:10:00,66.2,62.5,29.89,SW,228,6.0,6.0,88,0.33,,,0.62,Wunderground v.1.15,2013-05-16 18:10:00,
2013-05-16 14:11:00,66.0,62.3,29.89,SW,235,5.0,7.0,88,0.28,,,0.63,Wunderground v.1.15,2013-05-16 18:11:00,
2013-05-16 23:52:00,61.5,58.5,29.93,WSW,247,0.0,0.0,90,0.00,,,0.81,Wunderground v.1.15,2013-05-17 03:52:00,
2013-05-16 23:53:00,61.4,58.4,29.93,WSW,247,0.0,0.0,90,0.00,,,0.81,Wunderground v.1.15,2013-05-17 03:53:00,
2013-05-16 23:54:00,61.3,58.3,29.93,WSW,247,0.0,0.0,90,0.00,,,0.81,Wunderground v.1.15,2013-05-17 03:54:00,
2013-05-16 23:57:00,61.2,58.9,29.93,WSW,247,0.0,0.0,92,0.00,,,0.81,Wunderground v.1.15,2013-05-17 03:57:00,